Regional Weather Roundup
Issued by NWS

Home | Current Version | Previous Version | Graphics & Text | Print | Product List | Glossary On
Versions: 1 2 3 4 5 6 7 8 9 10 11 12 13 14 15 16 17 18 19 20 21 22 23 24 25 26 27 28 29 30 31 32 33 34 35 36 37 38 39 40 41 42 43 44 45 46 47 48 49 50
000
ASUS43 KLOT 050810
RWRIL

ILLINOIS REGIONAL WEATHER ROUNDUP
NATIONAL WEATHER SERVICE CHICAGO/ROMEOVILLE IL
200 AM CST THU MAR 05 2015

NOTE: "FAIR" INDICATES FEW OR NO CLOUDS BELOW 12,000 FEET WITH NO
SIGNIFICANT WEATHER AND/OR OBSTRUCTIONS TO VISIBILITY.

* THESE STATIONS ARE NOT UNDER NWS QUALITY CONTROL. THEY ALSO MAY NOT
  REPORT WEATHER SUCH AS PRECIPITATION OR FOG.

ILZ001-002-007-009-015-016-024-050900-
NORTHWEST ILLINOIS

CITY           SKY/WX    TMP DP  RH WIND       PRES   REMARKS
MOLINE         PTCLDY     9  -2  61 N10       30.43R WCI  -5
STERLING*      PTCLDY     5  -2  72 NW6       30.40R WCI  -6
SAVANNA*       PTCLDY     4  -4  69 NW5       30.42S WCI  -5
$$

ILZ003-004-008-010-011-017-018-050900-
NORTH CENTRAL ILLINOIS

CITY           SKY/WX    TMP DP  RH WIND       PRES   REMARKS
ROCKFORD       MOCLDY     6  -5  60 NW8       30.39F WCI  -7
FREEPORT*      PTCLDY     3  -5  68 NW5       30.39S WCI  -6
ROCHELLE*      CLEAR      4  -4  71 CALM      30.39R
DE KALB*       CLEAR      1  -6  70 NW7       30.35S WCI -11
PERU*          PTCLDY     6  -1  72 NW9       30.40S WCI  -8
$$

ILZ005-006-012>014-019>023-050900-
NORTHEAST ILLINOIS

CITY           SKY/WX    TMP DP  RH WIND       PRES   REMARKS
CHICAGO-OHARE  MOCLDY     8  -5  55 N12       30.35F WCI  -7
CHICAGO-MIDWAY MOCLDY    13  -2  51 N14       30.36S WCI  -2
AURORA         CLEAR      2  -6  69 NW7       30.37F WCI -11
LANSING*       CLEAR     12  -2  53 NW7       30.36S WCI   1
JOLIET*        CLEAR      8  -3  61 N5        30.38R WCI   0
WAUKEGAN       CLEAR      4  -8  57 NW6       30.35F WCI  -7
DUPAGE AIRPORT CLEAR      7  -4  60 N12       30.35F WCI  -8
KANKAKEE*      CLEAR      9   1  68 NW6       30.37S WCI  -1
WHEELING       CLEAR      7  -5  57 NW8       30.38S WCI  -6
MORRIS*        CLEAR      5  -2  72 NW6       30.38R WCI  -5
ROMEOVILLE*    CLEAR      8  -3  60 N8        30.37R WCI  -4
NORTHERLY ISL    N/A     14   0  53 NW14        N/A  WCI  -1
$$

LMZ740>746-050900-
SOUTHERN LAKE MICHIGAN

STATION/POSITION SKY/WX   TEMP    WIND        PRES    VSBY  WAVE
                          AIR SEA DIR/SP/G                  HT/PER
                          (F)     (DEG/KT/KT) (MB)    (MI)  (FT/S)
WAUKEGAN HARBOR             8                   N/A
HARRISON CRIB              14     330/ 17/ 22   N/A
BURNHAM HARBOR             14     320/ 12/ 13   N/A
CALUMET HARBOR             13     290/  6/  8 1026.6R
MICHIGAN CITY              15     280/  9/ 11   N/A
$$

ILZ025>027-034>036-040-047-049-050-058-095>099-050900-
WEST-CENTRAL ILLINOIS

CITY           SKY/WX    TMP DP  RH WIND       PRES   REMARKS
QUINCY         CLEAR     15   4  61 NE16      30.40R WCI  -1
GALESBURG*     MOCLDY    11   3  71 N12       30.41R WCI  -4
MACOMB*        CLOUDY    12   6  75 N8        30.43S WCI   1
JACKSONVILLE*  CLEAR     15   3  60 N8        30.40S WCI   4
PITTSFIELD*    PTCLDY    16   6  63 N7        30.40R WCI   7
$$

ILZ028>032-037-038-041>044-048-051>054-059>061-050900-
CENTRAL ILLINOIS

CITY           SKY/WX    TMP DP  RH WIND       PRES   REMARKS
PONTIAC        PTCLDY     9   1  70 NW9       30.40R WCI  -5
BLOOMINGTON    CLEAR      9   1  69 N13       30.37R WCI  -6
DECATUR        CLEAR     12   1  61 N12       30.38R WCI  -2
PEORIA         CLOUDY    13   0  56 N8        30.41R WCI   2
LACON*         PTCLDY     6  -2  68 CALM      30.42R
LINCOLN*       CLEAR     14   3  62 N9        30.43R WCI   2
SPRINGFIELD    CLEAR     13   1  59 N9        30.40R WCI   1
TAYLORVILLE    PTCLDY    12   3  67 N10       30.40R WCI  -1
$$

ILZ033-039-045-046-055>057-062-063-050900-
EAST-CENTRAL ILLINOIS

CITY           SKY/WX    TMP DP  RH WIND       PRES   REMARKS
CHAMPAIGN      CLEAR     11   2  67 N14       30.36R WCI  -5
DANVILLE*      PTCLDY    11   2  66 NW13      30.33R WCI  -4
RANTOUL*       CLEAR     11   4  71 N10       30.36R WCI  -2
MATTOON        PTCLDY    15   7  70 N14       30.36R WCI   0
PARIS*         MOCLDY    16   8  70 N6        30.36S WCI   8
$$

ILZ079-100>102-050900-
SOUTHWEST ILLINOIS

CITY           SKY/WX    TMP DP  RH WIND       PRES   REMARKS
ALTON          PTCLDY    18   3  51 NW3       30.41R
BELLEVILLE     MOCLDY    20   6  54 N10       30.40R WCI   9
CAHOKIA*       MOCLDY    21   7  54 N7        30.41R WCI  12
SPARTA*        MOCLDY    20   8  58 N8        30.38F WCI  10
$$

ILZ064>066-069>071-074>076-080>082-084>086-088>090-092>094-050900-
SOUTH-CENTRAL ILLINOIS

CITY           SKY/WX    TMP DP  RH WIND       PRES   REMARKS
CARBONDALE     CLOUDY    20   6  55 N9        30.36R WCI   9
CAIRO*         CLOUDY    23  15  71 N8        30.33R WCI  14
EFFINGHAM*     MOCLDY    18   4  54 NW7       30.39R WCI   9
MARION         CLOUDY    21   7  53 CALM      30.36S
MT. VERNON     CLOUDY    19   3  49 N6G16     30.37S WCI  11
CENTRALIA*     CLOUDY    20   6  54 N10       30.37S WCI   8
SALEM*         MOCLDY    21   7  56 N13       30.37S WCI   8
METROPOLIS*    CLOUDY    20  13  75 N8        30.31F WCI  11
$$

ILZ067-068-072-073-078-083-087-091-050900-
SOUTHEAST ILLINOIS

CITY           SKY/WX    TMP DP  RH WIND       PRES   REMARKS
LAWRENCEVILLE  CLOUDY    19   8  62 N17       30.35R WCI   4
FLORA*         CLOUDY    19   7  59 N12       30.36F WCI   6
FAIRFIELD*     CLOUDY    20   6  55 N12       30.35S WCI   8
HARRISBURG*    CLOUDY    21   7  55 N10G18    30.35S WCI  10
ROBINSON*      CLOUDY    18   8  65 N15       30.37R WCI   4
CARMI*         CLOUDY    22  11  62 N13       30.34S WCI  10
$$

ABBREVIATIONS USED IN REMARKS
   TC - TEMPERATURE IN CELSIUS
  WCI - WIND CHILL INDEX
   HX - HEAT INDEX
  VSB - VISIBILITY
$$




USA.gov is the U.S. government's official web portal to all federal, state and local government web resources and services.